Regional Weather Roundup
Issued by NWS

Home | Current Version | Previous Version | Graphics & Text | Print | Product List | Glossary On
Versions: 1 2 3 4 5 6 7 8 9 10 11 12 13 14 15 16 17 18 19 20 21 22 23 24 25 26 27 28 29 30 31 32 33 34 35 36 37 38 39 40 41 42 43 44 45 46 47 48 49 50
000
ASUS43 KBIS 221210
RWRND

NORTH DAKOTA REGIONAL WEATHER ROUNDUP
NATIONAL WEATHER SERVICE BISMARCK ND
600 AM CST MON DEC 22 2014

NOTE: "FAIR" INDICATES FEW OR NO CLOUDS BELOW 12,000 FEET WITH NO
SIGNIFICANT WEATHER AND/OR OBSTRUCTIONS TO VISIBILITY.


NDZ001>003-009>011-017-221300-
NORTHWEST NORTH DAKOTA

CITY           SKY/WX    TMP DP  RH WIND       PRES   REMARKS
WILLISTON      CLOUDY    29  25  85 NW17      29.48R WCI  17
6HR MIN TEMP:  29; 6HR MAX TEMP:  34; 6HR PCP:  0.01;

MINOT          FOG       28  26  92 E6        29.46S VSB 1/2
MINOT AFB      FRZ DRZL  27  27 100 E8        29.46S WCI  18
$$

NDZ018>021-031>035-040>046-221300-
SOUTHWEST NORTH DAKOTA

CITY           SKY/WX    TMP DP  RH WIND       PRES   REMARKS
BISMARCK       FOG       28  28 100 CALM      29.45S VSB 1/4
6HR MIN TEMP:  28; 6HR MAX TEMP:  28;

DICKINSON      LGT SNOW  32  29  88 NW22G30   29.43S FOG     WCI  19
GARRISON         N/A     28  27  96 E5        29.44R
6HR MIN TEMP:  28; 6HR MAX TEMP:  29;

HETTINGER ARPT FLURRIES  34  31  88 NW21G32   29.46R
$$

NDZ004>008-012>016-024-026-027-054-221300-
NORTHEAST NORTH DAKOTA

CITY           SKY/WX    TMP DP  RH WIND       PRES   REMARKS
GRAND FORKS    DRIZZLE   34  33  96 E6        29.52S FOG
GRND FRKS AFB  CLOUDY    34  34 100 SE6       29.52F FOG
DEVILS LAKE    CLOUDY    30  25  80 E6        29.47S
$$

NDZ022-023-025-028>030-036>039-047>053-221300-
SOUTHEAST NORTH DAKOTA

CITY           SKY/WX    TMP DP  RH WIND       PRES   REMARKS
FARGO          CLOUDY    38  36  92 SE10      29.49S FOG
6HR MIN TEMP:  37; 6HR MAX TEMP:  38;

JAMESTOWN      FOG       32  31  96 NE5       29.44S VSB 1/2
$$



USA.gov is the U.S. government's official web portal to all federal, state and local government web resources and services.